CZ-4C DEB (43261 NORAD) Tracking and Keplerian Element Data

This shows tracking and keplerian element data for the satellite.

Feedback or suggestion? Click here.




ElementValue
Catalog43261
NameCZ-4C DEB
Epoch Orbit429
Epoch Day119.25962608
Epoch Year2018
RAAN194.9809
Inclination98.0344
Eccentricity0.000452
Argument of Perigee160.1201
Mean Anonmoly200.0185
Mean Motion14.76431838
Decay Rate3.22E-06
L11 43261U 18031C 18119.25962608 .00000322 00000-0 53677-4 0 9996
L22 43261 98.0344 194.9809 0004520 160.1201 200.0185 14.76431838 4294



Live tracking and technical data element details for CZ-4C DEB (NORAD 43261). CZ-4C DEB can be tracked NOW for your location showing map with azimuth and elevation plus other details from your city location.







IsCatalogInMostPopularTable: catalog: 43261, numindb: 404
Update: records affected: 1



GetName: 43261 CZ-4C DEB

Hit Count: updated at: Thu, 15 May 2025 09:29:36 GMT